sat.trackr.live / text

‹ back to catalog

STARLINK-32488

NORAD 62125 · 2024-222M

PAYLOAD ACTIVE UNKNOWN

§ Identity

Operator
Country
US
Launch date
2024-11-27
Launch site
AFETR
Launch vehicle
Mass (kg)
RCS (m²)

Purposes: comms

External: N2YO · Heavens-Above · Gunter

§ Orbital elements

Epoch: 2026-05-25T04:23:54.961728Z

Period
94.27 min
Inclination
43.0024°
Eccentricity
0.0001701
Mean motion
15.27606388 rev/d
Perigee alt
481.8 km
Apogee alt
484.1 km
Semi-major
6,861.1 km
B*
1.0271e-3
RAAN
64.5323°
Arg perigee
263.5416°
Mean anomaly
96.5242°
Rev number
8,434

§ Raw data

STARLINK-324881 62125U 24222M   26145.18327502  .00028132  00000+0  10271-2 0  99922 62125  43.0024  64.5323 0001701 263.5416  96.5242 15.27606388 84343

JSON: /api/v1/satellites/62125 · /tle

For live sub-satellite position, see the globe view (requires WebGL).

§ Visibility from observer

Set your observer location to see the next 7 days of passes ≥ 10°. The values pass through the URL so the page stays shareable.

No JS? Fill the form by hand. The geolocation button needs JavaScript.